Weather in Cariacica

Brazil     20°19′01″S   40°23′01″W
temp.,
°C
wind,
m/s
gust,
m/s
humid.,
%
clouds,
%
prec.,
mm/h
press.,
hPa
HPBL,
m
16 may, sun
sun1600:00+16w11975 0.0 102022
03:00+15w21966 0.0 101923
06:00+15wnw219676 0.0 101927
09:00+22nnw006534 0.0 1021698
12:00+25ese325051 0.0 10191803
15:00+22ese227167 0.1 1017583
18:00+18sw008870 0.1 101911
21:00+18wnw118848 0.1 102119
17 may, mon
mon1700:00+17w119140 0.0 102017
03:00+16wnw119319 0.0 101820
06:00+16wnw119367 0.0 101920
09:00+23nne126378 0.0 1020910
12:00+26ene235394 0.0 10171515
15:00+24ene236682 0.4 1015691
18:00+18nnw118998 0.2 101613
21:00+17nw2294100 0.2 101739
18 may, tue
tue1800:00+16nw219566 0.0 101627
03:00+16wnw2194100 0.0 101532
06:00+16wnw2191100 0.0 101631
09:00+24s1160100 0.0 1017437
12:00+27ese334799 0.0 10151496
15:00+23se237291 0.3 1014462
18:00+18s1197100 0.9 101615
21:00+17wsw1198100 1.0 101836
19 may, wed
wed1900:00+17w119899 0.0 101729
03:00+16w21989 0.0 101628
06:00+16w11975 0.0 101722
09:00+22nne017312 0.0 1018634
12:00+24ene236543 0.2 1016723
15:00+25e226633 0.6 1013695
18:00+19w019510 0.2 101511
21:00+17wnw11970 0.2 101616
20 may, thu
thu2000:00+17wnw11955 0.0 101620
03:00+16wnw11930 0.0 101519
06:00+16w219359 0.0 101623
09:00+24e1161100 0.0 1017607
12:00+28e244723 0.0 10141727
15:00+24se227439 0.3 1013483
18:00+19ne019850 0.8 101544
21:00+19w119890 0.9 101641